Home   Weather   Barcelona Summit   Past weeks
Flag for USA

Past Weather in Barcelona Summit, Nevada, USA — Yesterday and Last 2 Weeks

Now
67 °F

Passing clouds.


Feels Like: 67 °F
Forecast: 71 / 32 °F
Wind: 3 mph from East

Location: Reno Tahoe International Airport

Current Time: Oct 21, 2019 at 7:25:25 pm

Latest Report: Oct 21, 2019 at 5:55 pm


Visibility: 10 mi

Pressure: 30.26 "Hg

Humidity: 21%

Dew Point: 26 °F

Location of Barcelona SummitLocation

Past Weather in Barcelona Summit — Graph

°F

Barcelona Summit Temperature Yesterday

Maximum temperature yesterday: 64 °F (at 4:55 pm)
Minimum temperature yesterday: 35 °F (at 7:55 am)
Average temperature yesterday: 50 °F

High & Low Weather Summary for the Past Weeks

 TemperatureHumidityPressure
High80 °F (Oct 8, 1:55 pm)74% (Oct 21, 4:55 am)30.32 "Hg (Oct 21, 4:55 am)
Low30 °F (Oct 11, 5:55 am)9% (Oct 10, 2:55 pm)29.65 "Hg (Oct 17, 3:55 am)
Average53 °F34%30.02 "Hg
* Reported Oct 6 5:55 pm — Oct 21 5:55 pm, Barcelona Summit. Weather by CustomWeather, © 2019

Note: Actual official high and low records may vary slightly from our data, if they occured in-between our weather recording intervals... More about our weather records

Advertising

Barcelona Summit Weather History for the Previous 24 Hours

Scroll right to see more
 ConditionsComfort  
Time TempWeatherWind HumidityBarometerVisibility
5:55 pm
Mon, Oct 21
67 °FPassing clouds.3 mph21%30.26 "Hg10 mi
4:55 pm69 °FPassing clouds.5 mph20%30.25 "Hg10 mi
3:55 pm68 °FPassing clouds.3 mph22%30.26 "Hg10 mi
2:55 pm69 °FPassing clouds.3 mph22%30.24 "Hg10 mi
1:55 pm66 °FPassing clouds.3 mph24%30.26 "Hg10 mi
12:55 pm65 °FSunny.No wind22%30.26 "Hg10 mi
11:55 am62 °FPassing clouds.No wind29%30.28 "Hg10 mi
10:55 am57 °FPassing clouds.No wind39%30.29 "Hg10 mi
9:55 am52 °FPassing clouds.No wind53%30.29 "Hg10 mi
8:55 am46 °FPassing clouds.3 mph66%30.32 "Hg10 mi
7:55 am41 °FPassing clouds.3 mph74%30.29 "Hg10 mi
6:55 am41 °FPassing clouds.No wind74%30.27 "Hg10 mi
5:55 am42 °FClear.No wind73%30.23 "Hg10 mi
4:55 am41 °FClear.No wind74%30.21 "Hg10 mi
3:55 am42 °FClear.No wind73%30.20 "Hg10 mi
2:55 am44 °FClear.No wind68%30.19 "Hg10 mi
1:55 am46 °FClear.No wind66%30.19 "Hg10 mi
12:55 am50 °FClear.No wind59%30.17 "Hg10 mi
11:55 pm
Sun, Oct 20
50 °FClear.3 mph59%30.16 "Hg10 mi
10:55 pm53 °FClear.6 mph52%30.17 "Hg10 mi
9:55 pm56 °FClear.10 mph49%30.15 "Hg10 mi
8:55 pm57 °FClear.9 mph47%30.16 "Hg10 mi
7:55 pm60 °FClear.13 mph42%30.13 "Hg10 mi
Weather by CustomWeather, © 2019

See weather overview